Weather in Logduz

Russia / Vologda Oblast     59°59′40″N   44°43′44″E
temp.,
°C
wind,
m/s
gust,
m/s
humid.,
%
clouds,
%
prec.,
mm/h
press.,
hPa
HPBL,
m
29 july, thu
thu2900:00+12wsw31166100 0.0 1009193
03:00+13sw2469100 0.0 100860
06:00+15wsw257388 0.0 1007137
09:00+20wsw3563100 0.5 1006499
12:00+21sw3678100 1.2 1004790
15:00+16nne1296100 5.3 100480
18:00+16sse2697100 0.9 1002179
21:00+16sw210100100 8.7 1000445
30 july, fri
fri3000:00+16sw4129796 5.0 999444
03:00+14wsw4129638 5.0 999409
06:00+15w4129492 0.0 1000544
09:00+19wnw48715 0.0 1000760
12:00+23w575537 0.2 10011707
15:00+26w58385 0.2 10002542
18:00+22wsw4960100 0.0 1001435
21:00+18sw237691 0.0 100151
31 july, sat
sat3100:00+15sw238454 0.0 100144
03:00+14wsw2297100 0.4 100145
06:00+16sw1297100 1.5 100184
09:00+17sw259299 1.8 1000316
12:00+21wsw466496 1.7 9991330
15:00+20wsw59685 3.1 10001324
18:00+17wnw38845 1.0 1000409
21:00+13wsw389610 2.6 1002225
1 august, sun
sun100:00+13sw289698 0.0 1002228
03:00+14sw31094100 0.1 1003348
06:00+14wsw399621 0.2 1004346
09:00+18w467576 0.2 1005893
12:00+20w3659100 0.1 10061481
15:00+21wsw3758100 0.1 1006799
18:00+22sw366124 0.0 1005884
21:00+16sw41088100 0.1 1006444
2 august, mon
mon200:00+15sw3995100 0.2 1006405
03:00+13sw399929 0.2 1006285
06:00+15sw3109310 0.0 1007353
09:00+20wsw476666 0.0 1007915
12:00+23wsw5853100 0.0 10071837
15:00+23wsw375691 0.0 10071440
18:00+23wsw1262100 0.0 100764
21:00+18sse2274100 0.0 100724